Legasea — LEGASEA — position and weather

sailwx.info

Track history (hours):
 
Tides and Currents Weather Stations Pressure Air Temp Water Temp Dewpoint Dewpoint Depression Visibility Wind Speed Wind Dir Waves Ship Positions

Legasea

Last reported at 2017-Oct-27 15:30 UTC. Time now 2017-Dec-15 19:59 UTC.
Position N 32°39' W 117°39'.
Warning: this ship's position is 49 days out of date.

Type: Pleasure craft. MMSI: 338301307.

Date/timePositionNaut miles runAvg speedWind from/ knotsBaromVisibWave heightAir tempDewpointWater temp
2017-Oct-27 15:30N 32°39' W 117°39'6 8.7
2017-Oct-27 14:49N 32°42' W 117°32'2 7.6
2017-Oct-27 14:30N 32°42' W 117°29'2 4.0
2017-Oct-27 14:00N 32°43' W 117°27'5 8.9
2017-Oct-27 13:25N 32°44' W 117°21'  
2017-Oct-17 18:35N 32°29' W 117°36'1 6.5
2017-Oct-17 18:27N 32°29' W 117°35'2 3.0
2017-Oct-17 17:50N 32°31' W 117°35'2 5.0
2017-Oct-17 17:28N 32°31' W 117°38'3 6.8
2017-Oct-17 17:00N 32°31' W 117°41'  
Track history (hours):
 
Tides and Currents Weather Stations Pressure Air Temp Water Temp Dewpoint Dewpoint Depression Visibility Wind Speed Wind Dir Waves Ship Positions

Legasea

Last reported at 2017-Oct-27 15:30 UTC. Time now 2017-Dec-15 19:59 UTC.
Position N 32°39' W 117°39'.
Warning: this ship's position is 49 days out of date.

Type: Pleasure craft. MMSI: 338301307.

Date/timePositionNaut miles runAvg speedWind from/ knotsBaromVisibWave heightAir tempDewpointWater temp
2017-Oct-27 15:30N 32°39' W 117°39'6 8.7
2017-Oct-27 14:49N 32°42' W 117°32'2 7.6
2017-Oct-27 14:30N 32°42' W 117°29'2 4.0
2017-Oct-27 14:00N 32°43' W 117°27'5 8.9
2017-Oct-27 13:25N 32°44' W 117°21'  
2017-Oct-17 18:35N 32°29' W 117°36'1 6.5
2017-Oct-17 18:27N 32°29' W 117°35'2 3.0
2017-Oct-17 17:50N 32°31' W 117°35'2 5.0
2017-Oct-17 17:28N 32°31' W 117°38'3 6.8
2017-Oct-17 17:00N 32°31' W 117°41'  

Dump ship's entire track history